Date String (YYYY-MM-DD hh:mm:ss) UTC,Instrument flags,Ambient pressure (hPa),Sample flow (lpm),Bypass flow (lpm),Sample temperature (°C),Ambient temperature (°C),ASC tube jacket temperature (°C),LED temperature (°C),Box temperature (°C),Sample RH (%),Span deviation,Mass concentration (μg/m³),Mass concentration (μg/m³),Mass concentration (μg/m³)
DateTimeUTC,F1_M11,P_M11,Q1_M11,Q2_M11,T1_M11,T2_M11,T3_M11,T4_M11,T5_M11,U1_M11,ZSPAN_M11,X0_M11,X2_M11,X1_M11
2021-08-27 05:00:00,,0829.0,5.01,0.00,29.3,27.7,00.0,38.5,31.0,21.9,0000.0,0004.49,0001.35,0001.02
2021-08-27 05:01:00,,0829.0,5.00,0.00,29.4,27.9,00.0,38.5,31.1,21.9,0000.0,0003.99,0001.32,0001.02
2021-08-27 05:02:00,,0828.9,5.00,0.00,29.4,28.0,00.0,38.5,31.1,21.9,0000.0,0003.88,0001.27,0001.01
2021-08-27 05:03:00,,0829.0,5.00,0.00,29.4,28.1,00.0,38.5,31.1,22.0,0000.0,0003.73,0001.25,0001.02
2021-08-27 05:04:00,,0829.0,4.99,0.00,29.4,28.2,00.0,38.5,31.2,22.6,0000.0,0003.70,0001.26,0001.04
2021-08-27 05:05:00,,0828.6,5.00,0.00,29.5,28.3,00.0,38.5,31.3,23.2,0000.0,0003.67,0001.25,0001.05
2021-08-27 05:06:00,,0829.0,5.00,0.00,29.5,28.4,00.0,38.5,31.3,23.6,0000.0,0003.71,0001.27,0001.06
2021-08-27 05:07:00,,0828.8,4.99,0.00,29.5,28.5,00.0,38.5,31.3,24.1,0000.0,0003.74,0001.27,0001.08
2021-08-27 05:08:00,,0829.0,4.99,0.00,29.6,28.6,00.0,38.6,31.4,23.8,0000.0,0003.46,0001.27,0001.11
2021-08-27 05:09:00,,0829.1,5.00,0.00,29.6,28.6,00.0,38.6,31.4,23.5,0000.0,0002.30,0001.33,0001.15
2021-08-27 05:10:00,,0829.0,5.01,0.00,29.6,28.7,00.0,38.6,31.4,23.4,0000.0,0002.28,0001.33,0001.16
2021-08-27 05:11:00,,0829.2,4.99,0.00,29.7,28.8,00.0,38.6,31.5,23.5,0000.0,0002.24,0001.34,0001.16
2021-08-27 05:12:00,,0829.2,4.99,0.00,29.7,28.8,00.0,38.7,31.5,23.8,0000.0,0002.24,0001.34,0001.15
2021-08-27 05:13:00,,0829.3,5.01,0.00,29.7,28.9,00.0,38.7,31.6,23.5,0000.0,0002.36,0001.37,0001.17
2021-08-27 05:14:00,,0829.2,4.99,0.00,29.7,28.9,00.0,38.7,31.6,23.8,0000.0,0002.59,0001.42,0001.18
2021-08-27 05:15:00,,0829.3,5.01,0.00,29.7,28.5,00.0,38.7,31.4,23.8,0000.0,0002.75,0001.41,0001.18
2021-08-27 05:16:00,,0829.3,5.00,0.00,29.6,26.7,00.0,38.7,31.0,24.1,0000.0,0002.71,0001.41,0001.18
2021-08-27 05:17:00,,0829.3,4.99,0.00,29.5,26.2,00.0,38.7,30.8,24.2,0000.0,0002.67,0001.39,0001.18
2021-08-27 05:18:00,,0829.2,4.99,0.00,29.4,26.4,00.0,38.6,30.9,24.6,0000.0,0002.38,0001.39,0001.18
2021-08-27 05:19:00,,0829.2,5.00,0.00,29.3,26.8,00.0,38.6,30.9,24.7,0000.0,0002.33,0001.40,0001.17
2021-08-27 05:20:00,,0829.3,5.01,0.00,29.3,27.2,00.0,38.6,31.0,24.7,0000.0,0002.33,0001.40,0001.16
2021-08-27 05:21:00,,0829.3,4.99,0.00,29.3,27.5,00.0,38.5,31.1,24.6,0000.0,0002.40,0001.43,0001.18
2021-08-27 05:22:00,,0829.4,5.01,0.00,29.4,27.7,00.0,38.5,31.1,24.7,0000.0,0002.41,0001.43,0001.19
2021-08-27 05:23:00,,0829.2,4.99,0.00,29.4,27.9,00.0,38.5,31.1,24.2,0000.0,0002.54,0001.47,0001.21
2021-08-27 05:24:00,,0829.3,5.01,0.00,29.4,28.0,00.0,38.5,31.1,24.1,0000.0,0003.17,0001.50,0001.24
2021-08-27 05:25:00,,0829.4,5.00,0.00,29.4,28.2,00.0,38.5,31.2,24.2,0000.0,0003.94,0001.47,0001.25
2021-08-27 05:26:00,,0829.4,5.00,0.00,29.4,28.3,00.0,38.5,31.2,23.9,0000.0,0003.77,0001.49,0001.27
2021-08-27 05:27:00,,0829.3,5.00,0.00,29.4,28.3,00.0,38.5,31.2,23.7,0000.0,0003.83,0001.53,0001.28
2021-08-27 05:28:00,,0829.3,5.01,0.00,29.4,28.4,00.0,38.5,31.2,24.0,0000.0,0003.86,0001.56,0001.30
2021-08-27 05:29:00,,0829.2,5.00,0.00,29.5,28.5,00.0,38.5,31.3,24.3,0000.0,0003.91,0001.59,0001.33
2021-08-27 05:30:00,,0829.3,5.00,0.00,29.5,28.5,00.0,38.6,31.3,23.9,0000.0,0003.99,0001.64,0001.34
2021-08-27 05:31:00,,0829.3,5.00,0.00,29.5,28.6,00.0,38.6,31.3,24.1,0000.0,0003.87,0001.59,0001.34
2021-08-27 05:32:00,,0829.2,5.00,0.00,29.5,28.6,00.0,38.6,31.4,24.0,0000.0,0003.87,0001.57,0001.32
2021-08-27 05:33:00,,0829.1,5.01,0.00,29.6,28.7,00.0,38.6,31.4,24.1,0000.0,0003.89,0001.57,0001.32
2021-08-27 05:34:00,,0829.0,5.01,0.00,29.6,28.7,00.0,38.6,31.4,23.9,0000.0,0003.83,0001.58,0001.31
2021-08-27 05:35:00,,0829.0,5.00,0.00,29.6,28.8,00.0,38.6,31.5,23.2,0000.0,0003.42,0001.57,0001.30
2021-08-27 05:36:00,,0828.8,5.00,0.00,29.7,28.8,00.0,38.7,31.5,23.5,0000.0,0002.40,0001.62,0001.30
2021-08-27 05:37:00,,0829.2,4.99,0.00,29.7,28.9,00.0,38.7,31.5,23.4,0000.0,0002.49,0001.61,0001.29
2021-08-27 05:38:00,,0829.3,5.00,0.00,29.7,29.0,00.0,38.7,31.6,22.8,0000.0,0002.44,0001.59,0001.28
2021-08-27 05:39:00,,0828.8,5.01,0.00,29.7,29.0,00.0,38.7,31.6,22.8,0000.0,0002.55,0001.60,0001.27
2021-08-27 05:40:00,,0829.1,4.99,0.00,29.7,27.9,00.0,38.7,31.3,22.9,0000.0,0002.46,0001.56,0001.25
2021-08-27 05:41:00,,0828.8,5.01,0.00,29.6,26.4,00.0,38.7,31.0,22.8,0000.0,0002.46,0001.54,0001.24
2021-08-27 05:42:00,,0828.8,5.00,0.00,29.5,26.4,00.0,38.7,30.9,23.3,0000.0,0002.43,0001.53,0001.24
2021-08-27 05:43:00,,0828.8,5.00,0.00,29.4,26.7,00.0,38.6,30.9,23.6,0000.0,0002.41,0001.52,0001.24
2021-08-27 05:44:00,,0828.5,4.99,0.00,29.4,27.1,00.0,38.6,31.0,23.8,0000.0,0002.48,0001.52,0001.24
2021-08-27 05:45:00,,0828.5,5.00,0.00,29.4,27.5,00.0,38.6,31.1,23.7,0000.0,0002.41,0001.49,0001.24
2021-08-27 05:46:00,,0828.5,5.01,0.00,29.4,27.7,00.0,38.6,31.1,24.0,0000.0,0002.39,0001.47,0001.24
2021-08-27 05:47:00,,0828.4,5.00,0.00,29.4,27.9,00.0,38.6,31.2,24.0,0000.0,0002.16,0001.41,0001.22
2021-08-27 05:48:00,,0828.4,5.00,0.00,29.5,28.1,00.0,38.6,31.3,24.0,0000.0,0002.08,0001.42,0001.21
2021-08-27 05:49:00,,0828.3,4.99,0.00,29.5,28.2,00.0,38.6,31.3,24.0,0000.0,0002.73,0001.42,0001.21
2021-08-27 05:50:00,,0828.3,5.00,0.00,29.5,28.3,00.0,38.6,31.3,24.1,0000.0,0003.19,0001.42,0001.21
2021-08-27 05:51:00,,0828.3,5.00,0.00,29.5,28.4,00.0,38.6,31.4,24.0,0000.0,0003.20,0001.42,0001.21
2021-08-27 05:52:00,,0828.3,4.99,0.00,29.5,28.5,00.0,38.6,31.4,23.8,0000.0,0003.24,0001.41,0001.20
2021-08-27 05:53:00,,0828.3,5.01,0.00,29.6,28.5,00.0,38.6,31.4,23.7,0000.0,0003.36,0001.43,0001.20
2021-08-27 05:54:00,,0828.3,5.00,0.00,29.6,28.6,00.0,38.6,31.4,23.5,0000.0,0003.33,0001.43,0001.20
2021-08-27 05:55:00,,0828.3,4.99,0.00,29.6,28.6,00.0,38.7,31.4,23.5,0000.0,0003.23,0001.44,0001.20
2021-08-27 05:56:00,,0828.3,5.00,0.00,29.6,28.7,00.0,38.7,31.4,23.5,0000.0,0003.33,0001.49,0001.21
2021-08-27 05:57:00,,0828.3,5.00,0.00,29.6,28.7,00.0,38.7,31.5,23.1,0000.0,0003.40,0001.50,0001.20
2021-08-27 05:58:00,,0828.3,5.00,0.00,29.7,28.8,00.0,38.7,31.5,23.4,0000.0,0003.45,0001.50,0001.20
2021-08-27 05:59:00,,0828.3,5.01,0.00,29.7,28.8,00.0,38.7,31.5,23.5,0000.0,0004.06,0001.48,0001.20
